Mattoon, IL

12:45 PM CST on December 09, 2019 (GMT -0600)
Coles County Memorial

Weather History for KMTO - June, 2019

Change the Weather History Date:

Thursday, June 6, 2019

  Actual Average Record
Temperature  
Mean Temperature 76 °F 69 °F  
Max Temperature 87 °F 80 °F 92 °F (1952)
Min Temperature 64 °F 59 °F 44 °F (1998)
Degree Days  
Heating Degree Days 0 1  
Month to date heating degree days 0 8  
Since 1 June heating degree days 0 8  
Since 1 July heating degree days 5517 5398  
Cooling Degree Days 11 5  
Month to date cooling degree days 43 29  
Year to date cooling degree days 168 117  
Since 1 June cooling degree days 43 29  
Growing Degree Days 25 (Base 50)    
Moisture  
Dew Point 64 °F    
Average Humidity 69    
Maximum Humidity 93    
Minimum Humidity 45    
Precipitation  
Precipitation 0.00 in 0.18 in 1.21 in (1978)
Month to date precipitation T 1.04  
Year to date precipitation 11.63 15.39  
Sea Level Pressure  
Sea Level Pressure 29.80 in    
Wind  
Wind Speed 6 mph (ENE)    
Max Wind Speed 14 mph    
Max Gust Speed 19 mph    
Visibility 10 miles    
Events      
T = Trace of Precipitation, MM = Missing Value Source: NWS Daily Summary

Daily Weather History Graph

Daily Weather History Graph

Search for Another Location

Airport or City:

Astronomy

Jun. 06, 2019 Rise Set
Actual Time 5:26 AM CDT 8:17 PM CDT
Civil Twilight 4:54 AM CDT 8:49 PM CDT
Nautical Twilight 4:13 AM CDT 9:30 PM CDT
Astronomical Twilight 3:27 AM CDT 10:16 PM CDT
Moon 8:34 AM CDT (6/6) 11:35 PM CDT (6/6)
Length of Visible Light 15h 55m
Length of Day
14h 51m
Waxing Crescent, 14% of the Moon is Illuminated
Jun 6
Waxing Crescent
Jun 10
First Quarter
Jun 17
Full
Jun 25
Last Quarter
Jul 2
New

Hourly Weather History & Observations

Time (CDT) Temp. Heat Index Dew Point Humidity Pressure Visibility Wind Dir Wind Speed Gust Speed Precip Events Conditions
12:53 AM 68.0 °F - 63.0 °F 84% 29.80 in 10.0 mi WNW 6.9 mph - N/A   Clear
1:53 AM 66.9 °F - 62.1 °F 84% 29.78 in 10.0 mi WNW 8.1 mph - N/A   Clear
2:53 AM 66.9 °F - 63.0 °F 87% 29.78 in 10.0 mi WNW 6.9 mph - N/A   Clear
3:53 AM 66.9 °F - 63.0 °F 87% 29.79 in 10.0 mi Calm Calm - N/A   Clear
4:53 AM 66.0 °F - 62.1 °F 87% 29.78 in 10.0 mi NW 3.5 mph - N/A   Clear
5:53 AM 64.9 °F - 63.0 °F 93% 29.81 in 6.0 mi WNW 4.6 mph - N/A   Clear
6:53 AM 70.0 °F - 64.0 °F 81% 29.82 in 10.0 mi NNW 5.8 mph - N/A   Clear
7:53 AM 73.0 °F - 64.9 °F 76% 29.82 in 10.0 mi North 8.1 mph - N/A   Clear
8:53 AM 75.9 °F - 66.0 °F 71% 29.83 in 10.0 mi Variable 5.8 mph - N/A   Clear
9:53 AM 79.0 °F - 66.9 °F 66% 29.83 in 10.0 mi Variable 4.6 mph - N/A   Clear
10:53 AM 81.0 °F 83.0 °F 66.0 °F 60% 29.83 in 10.0 mi East 4.6 mph - N/A   Clear
11:53 AM 81.0 °F 83.0 °F 66.0 °F 60% 29.83 in 10.0 mi ESE 8.1 mph - N/A   Clear
12:53 PM 82.9 °F 84.6 °F 64.9 °F 54% 29.83 in 10.0 mi ESE 10.4 mph - N/A   Clear
1:53 PM 84.9 °F 86.6 °F 64.9 °F 51% 29.82 in 10.0 mi East 11.5 mph 16.1 mph N/A   Clear
2:53 PM 86.0 °F 86.8 °F 63.0 °F 46% 29.80 in 10.0 mi East 10.4 mph - N/A   Clear
3:53 PM 84.9 °F 85.9 °F 63.0 °F 48% 29.78 in 10.0 mi East 4.6 mph - N/A   Clear
4:53 PM 84.9 °F 86.6 °F 64.9 °F 51% 29.78 in 10.0 mi SE 9.2 mph - N/A   Clear
5:53 PM 84.9 °F 85.9 °F 63.0 °F 48% 29.77 in 10.0 mi ESE 5.8 mph - N/A   Clear
6:01 PM 84.0 °F 84.5 °F 62.1 °F 47% 29.79 in 10.0 mi East 8.1 mph - N/A   Partly Cloudy
6:53 PM 82.9 °F 84.0 °F 63.0 °F 51% 29.77 in 10.0 mi East 5.8 mph - N/A   Clear
7:53 PM 79.0 °F - 64.9 °F 62% 29.78 in 10.0 mi ESE 5.8 mph - N/A   Clear
8:53 PM 79.0 °F - 64.0 °F 60% 29.79 in 10.0 mi East 4.6 mph - N/A   Clear
10:53 PM 75.0 °F - 64.0 °F 69% 29.81 in 10.0 mi NE 5.8 mph - N/A   Clear
11:53 PM 73.0 °F - 64.0 °F 73% 29.80 in 9.0 mi ENE 4.6 mph - N/A   Clear